Regional Weather Roundup
Issued by NWS New Orleans/Baton Rouge, LA

Home | Current Version | Previous Version | Graphics & Text | Print | Product List | Glossary On
Versions: 1 2 3 4 5 6 7 8 9 10 11 12 13 14 15 16 17 18 19 20 21 22 23 24 25 26 27 28 29 30 31 32 33 34 35 36 37 38 39 40 41 42 43 44 45 46 47 48 49 50
272
ASUS44 KLIX 281201
RWRLIX
NEW ORLEANS REGIONAL WEATHER ROUNDUP
NATIONAL WEATHER SERVICE NEW ORLEANS LA
700 AM CDT MON JUL 28 2014

NOTE: "FAIR" INDICATES FEW OR NO CLOUDS BELOW 12,000 FEET WITH NO
      SIGNIFICANT WEATHER AND/OR OBSTRUCTIONS TO VISIBILITY.
      SKY/WX - SKY CONDITION AND SIGNIFICANT WEATHER.
      TMP - AIR TEMPERATURE.     DP    - DEWPOINT TEMPERATURE.
      RH  - RELATIVE HUMIDITY.   PRES  - PRESSURE.
      HI  - HEAT INDEX.          WCI   - WIND CHILL INDEX.

*  THESE STATIONS ARE NOT NWS OR FAA STATIONS AND ARE NOT UNDER
   NWS QUALITY CONTROL.

LAZ038-040-048-061>063-065>067-069-281300-
SOUTHEAST LOUISIANA

CITY           SKY/WX    TMP DP  RH WIND       PRES   REMARKS
N.O. AUDUBON     N/A     82  76  82 MISG        N/A
6HR MIN TEMP:  79; 6HR MAX TEMP:  83;

N.O. INTL ARPT PTCLDY    80  76  87 W5        30.08R
6HR MIN TEMP:  79; 6HR MAX TEMP:  81;

N.O. LAKEFRONT CLEAR     83  77  82 W21       30.08R
6HR MIN TEMP:  83; 6HR MAX TEMP:  84;

N.O. DOWNTOWN*   N/A     82  73  74 CALM      30.09R
6HR MIN TEMP:  81; 6HR MAX TEMP:  82;

SLIDELL        CLEAR     80  75  84 CALM      30.07R
6HR MIN TEMP:  79; 6HR MAX TEMP:  83;

BATON ROUGE    CLEAR     78  75  90 W7        30.08R
6HR MIN TEMP:  77; 6HR MAX TEMP:  80;

BOOTHVILLE     PTCLDY    82  78  88 W6        30.08R
6HR MIN TEMP:  82; 6HR MAX TEMP:  84;

BELLE CHASSE   MOCLDY    80  75  84 W3        30.08R
6HR MIN TEMP:  79; 6HR MAX TEMP:  82;

BOGALUSA*        N/A     79  74  85 CALM      30.08R
6HR MIN TEMP:  79; 6HR MAX TEMP:  81;

GALLIANO*      NOT AVBL
NEW ROADS*       N/A     75  74  96 CALM      30.09R FOG
6HR MIN TEMP:  75; 6HR MAX TEMP:  79;

GONZALES*        N/A     79  78  98 CALM      30.08R
6HR MIN TEMP:  78; 6HR MAX TEMP:  80;

HAMMOND*       CLEAR     79  73  83 CALM      30.09R
HOUMA*         PTCLDY    81  73  78 CALM      30.09R
PORT FOURCHON* MOSUNNY   84  75  74 W9G16     30.10R

$$

MSZ070-080>082-281300-
SOUTHERN MISSISSIPPI

CITY           SKY/WX    TMP DP  RH WIND       PRES   REMARKS
MCCOMB         CLEAR     77  74  90 W5        30.08R
6HR MIN TEMP:  76; 6HR MAX TEMP:  79;

GULFPORT       CLEAR     82  76  81 W7        30.06R
6HR MIN TEMP:  81; 6HR MAX TEMP:  85;

BILOXI         NOT AVBL
PASCAGOULA     PTCLDY    79  76  90 W5        30.06R
6HR MIN TEMP:  79; 6HR MAX TEMP:  81;


$$

COASTAL OBSERVATIONS
LAKE AND NEARSHORE STATIONS

STATION/POSITION TIME  TEMP    WIND        PRES    WAVE
                       AIR SEA DIR/SP/G            HT/PER
                 (UTC) (F)     (DEG/KT/KT) (MB)    (FT/S)
PASCAGOULA       1100   82     290/  9/ 13 1017.2
WAVELAND YACHT   1100   80     300/  7/  9 1017.3
GRAND ISLE       1100   84 87  300/ 13/ 16 1019.0
SOUTHWEST PASS   1100   84 84  280/ 13/ 19 1018.7
NEW CANAL        1100   82 84  260/  8/ 12 1018.8
SHELL BEACH      1100   81 82  290/ 11/ 12 1018.3

OFFSHORE STATIONS

STATION/POSITION TIME  TEMP    WIND        PRES    WAVE
                       AIR SEA DIR/SP/G            HT/PER
                 (UTC) (F)     (DEG/KT/KT) (MB)    (FT/S)
64 S DAUPHIN ISL 1133   85 85  280/ 17/ 19 1018.3

$$




USA.gov is the U.S. government's official web portal to all federal, state and local government web resources and services.